DFIRE EDWI-EDWN

Flight info

Callsign DFIRE
Flight time 0h 23m
Altitude 3000
Route VFR
Aircraft PC12/L-S/L

Departure

Time 2026-04-23 18:26
Airport JadeWeser Airport (EDWI)

Arrival

Time 2026-04-23 18:49
Airport Flugplatz Nordhorn-Lingen (EDWN)
Time Latitude Longitude Altitude Speed Heading
2026-04-23 18:21 53.50685 8.05279 27 ft 0 kts 29°
2026-04-23 18:24 53.50685 8.05280 29 ft 1 kts 38°
2026-04-23 18:24 53.50670 8.05359 29 ft 10 kts 70°
2026-04-23 18:24 53.50770 8.05447 28 ft 18 kts 30°
2026-04-23 18:25 53.50816 8.05640 26 ft 6 kts 221°
2026-04-23 18:25 53.50692 8.05547 28 ft 47 kts 201°
2026-04-23 18:25 53.50169 8.05192 55 ft 108 kts 202°
2026-04-23 18:25 53.49423 8.04702 602 ft 118 kts 208°
2026-04-23 18:26 53.48507 8.04070 827 ft 158 kts 211°
2026-04-23 18:26 53.47477 8.03343 1426 ft 168 kts 200°
2026-04-23 18:26 53.46311 8.02964 2027 ft 174 kts 193°
2026-04-23 18:26 53.45068 8.02632 2450 ft 191 kts 192°
2026-04-23 18:27 53.43705 8.02457 2628 ft 204 kts 177°
2026-04-23 18:27 53.42765 8.02744 2567 ft 209 kts 165°
2026-04-23 18:27 53.41350 8.03281 2563 ft 207 kts 170°
2026-04-23 18:27 53.39924 8.03504 2563 ft 207 kts 183°
2026-04-23 18:28 53.38497 8.03195 2511 ft 206 kts 196°
2026-04-23 18:28 53.37116 8.02549 2490 ft 206 kts 200°
2026-04-23 18:28 53.35737 8.01897 2450 ft 206 kts 199°
2026-04-23 18:28 53.34359 8.01273 2454 ft 205 kts 199°
2026-04-23 18:29 53.32981 8.00657 2440 ft 205 kts 200°
2026-04-23 18:29 53.31640 7.99876 2438 ft 203 kts 206°
2026-04-23 18:29 53.30328 7.99019 2420 ft 201 kts 206°
2026-04-23 18:29 53.29034 7.98187 2438 ft 199 kts 206°
2026-04-23 18:30 53.27753 7.97337 2487 ft 197 kts 208°
2026-04-23 18:30 53.26485 7.96432 2475 ft 200 kts 208°
2026-04-23 18:30 53.25194 7.95523 2436 ft 201 kts 207°
2026-04-23 18:30 53.23904 7.94625 2391 ft 201 kts 207°
2026-04-23 18:31 53.22615 7.93737 2337 ft 199 kts 208°
2026-04-23 18:31 53.21333 7.92829 2272 ft 201 kts 207°
2026-04-23 18:31 53.20033 7.91995 2279 ft 200 kts 204°
2026-04-23 18:31 53.18742 7.91146 2306 ft 198 kts 209°
2026-04-23 18:32 53.17493 7.90206 2368 ft 195 kts 209°
2026-04-23 18:32 53.16270 7.89344 2484 ft 192 kts 208°
2026-04-23 18:32 53.15022 7.88449 2598 ft 192 kts 208°
2026-04-23 18:32 53.13791 7.87576 2859 ft 196 kts 208°
2026-04-23 18:33 53.12524 7.86684 3121 ft 200 kts 208°
2026-04-23 18:33 53.11246 7.85786 3377 ft 198 kts 208°
2026-04-23 18:33 53.09981 7.84893 3484 ft 204 kts 208°
2026-04-23 18:33 53.08665 7.83958 3484 ft 200 kts 208°
2026-04-23 18:34 53.07390 7.83057 3479 ft 199 kts 208°
2026-04-23 18:34 53.06138 7.82179 3480 ft 197 kts 208°
2026-04-23 18:34 53.04875 7.81296 3479 ft 197 kts 208°
2026-04-23 18:34 53.03599 7.80395 3484 ft 201 kts 208°
2026-04-23 18:35 53.02312 7.79488 3487 ft 202 kts 208°
2026-04-23 18:35 53.01017 7.78577 3490 ft 201 kts 208°
2026-04-23 18:35 52.99741 7.77689 3482 ft 197 kts 208°
2026-04-23 18:35 52.98476 7.76805 3480 ft 197 kts 208°
2026-04-23 18:36 52.97215 7.75915 3482 ft 198 kts 208°
2026-04-23 18:36 52.95956 7.75009 3482 ft 198 kts 208°
2026-04-23 18:36 52.94694 7.74098 3482 ft 198 kts 208°
2026-04-23 18:36 52.93431 7.73191 3481 ft 197 kts 208°
2026-04-23 18:37 52.92170 7.72295 3480 ft 197 kts 208°
2026-04-23 18:37 52.90910 7.71399 3479 ft 197 kts 208°
2026-04-23 18:37 52.89649 7.70493 3481 ft 198 kts 208°
2026-04-23 18:37 52.88384 7.69586 3481 ft 198 kts 208°
2026-04-23 18:38 52.87112 7.68674 3487 ft 198 kts 208°
2026-04-23 18:38 52.85862 7.67779 3485 ft 197 kts 208°
2026-04-23 18:38 52.84740 7.66488 3489 ft 193 kts 229°
2026-04-23 18:38 52.83749 7.64980 3494 ft 194 kts 230°
2026-04-23 18:39 52.82741 7.63516 3499 ft 196 kts 226°
2026-04-23 18:39 52.81666 7.62115 3502 ft 197 kts 224°
2026-04-23 18:39 52.80579 7.60730 3503 ft 197 kts 224°
2026-04-23 18:39 52.79498 7.59343 3504 ft 197 kts 224°
2026-04-23 18:40 52.78418 7.57952 3503 ft 197 kts 224°
2026-04-23 18:40 52.77338 7.56561 3502 ft 197 kts 224°
2026-04-23 18:40 52.76258 7.55172 3489 ft 196 kts 224°
2026-04-23 18:40 52.75180 7.53787 3489 ft 197 kts 223°
2026-04-23 18:41 52.74099 7.52398 3487 ft 197 kts 223°
2026-04-23 18:41 52.73018 7.51011 3485 ft 197 kts 223°
2026-04-23 18:41 52.71937 7.49624 3492 ft 197 kts 223°
2026-04-23 18:41 52.70857 7.48241 3493 ft 196 kts 223°
2026-04-23 18:42 52.69780 7.46860 3496 ft 196 kts 223°
2026-04-23 18:42 52.68699 7.45475 3497 ft 197 kts 223°
2026-04-23 18:42 52.67618 7.44093 3508 ft 196 kts 223°
2026-04-23 18:42 52.66538 7.42711 3478 ft 200 kts 223°
2026-04-23 18:43 52.65448 7.41319 3346 ft 195 kts 223°
2026-04-23 18:43 52.64382 7.39959 3215 ft 194 kts 223°
2026-04-23 18:43 52.63317 7.38600 3084 ft 193 kts 223°
2026-04-23 18:43 52.62258 7.37248 2955 ft 193 kts 223°
2026-04-23 18:44 52.61200 7.35901 2828 ft 191 kts 223°
2026-04-23 18:44 52.60012 7.34903 2691 ft 194 kts 204°
2026-04-23 18:44 52.58725 7.34105 2570 ft 205 kts 205°
2026-04-23 18:44 52.57358 7.33214 2463 ft 217 kts 205°
2026-04-23 18:45 52.55942 7.32271 2355 ft 220 kts 205°
2026-04-23 18:45 52.54521 7.31314 2234 ft 222 kts 206°
2026-04-23 18:45 52.53082 7.30345 2110 ft 224 kts 205°
2026-04-23 18:45 52.51643 7.29364 1887 ft 222 kts 205°
2026-04-23 18:46 52.50238 7.28414 1627 ft 217 kts 205°
2026-04-23 18:46 52.48848 7.27480 1374 ft 215 kts 205°
2026-04-23 18:46 52.47486 7.26537 1167 ft 210 kts 206°
2026-04-23 18:46 52.46175 7.25539 950 ft 205 kts 212°
2026-04-23 18:47 52.45078 7.24081 863 ft 189 kts 233°
2026-04-23 18:47 52.44283 7.22480 800 ft 190 kts 236°
2026-04-23 18:47 52.43458 7.20714 765 ft 196 kts 237°
2026-04-23 18:47 52.42676 7.19009 737 ft 177 kts 239°
2026-04-23 18:48 52.42461 7.17300 694 ft 154 kts 300°
2026-04-23 18:48 52.43283 7.16235 639 ft 143 kts 328°
2026-04-23 18:48 52.44073 7.15449 597 ft 121 kts 342°
2026-04-23 18:48 52.44748 7.15903 461 ft 110 kts 51°
2026-04-23 18:49 52.45121 7.16814 318 ft 88 kts 50°
2026-04-23 18:49 52.45481 7.17643 145 ft 88 kts 53°
2026-04-23 18:49 52.45799 7.18386 95 ft 67 kts 54°
2026-04-23 18:49 52.45942 7.18721 95 ft 18 kts 55°
2026-04-23 18:50 52.46003 7.18802 92 ft 14 kts 327°
2026-04-23 18:50 52.45933 7.18565 93 ft 26 kts 235°
2026-04-23 18:50 52.45829 7.18323 93 ft 23 kts 236°
2026-04-23 18:50 52.45730 7.18087 91 ft 27 kts 233°
2026-04-23 18:51 52.45638 7.17878 91 ft 25 kts 234°
2026-04-23 18:51 52.45555 7.17684 94 ft 17 kts 237°
2026-04-23 18:51 52.45587 7.17567 90 ft 15 kts 339°
2026-04-23 18:51 52.45641 7.17578 92 ft 10 kts 13°
2026-04-23 18:52 52.45731 7.17539 92 ft 14 kts 320°
2026-04-23 18:52 52.45771 7.17438 92 ft 6 kts 324°
2026-04-23 18:52 52.45785 7.17441 93 ft 0 kts 50°